Vorticity
13 17 9 12 16 11 -3 4 8 1 15 15 13 25 -2 16 -3 -32 -24 26 32 5
25 22 21 16 19 21 14 10 31 19 47 21 36 22 22 21 26 31 18 12 18 23
13 19 26 21 18 16 16 11 20 7 -4 21 32 12 8 11 12 11 13 10 -8 -4
22 30 29 16 9 12 22 19 12 19 18 5 10 7 10 20 9 13 15 7 20 19
54 4 29 8 20 21 16 16 14 12 11 11 9 10 5 8 13 11 16 9 2 9
39 15 6 11 6 9 13 14 16 16 17 16 16 14 14 11 15 11 9 13 15 13
10 13 4 7 2 1 3 16 16 17 17 19 17 17 13 14 10 17 14 13 31 -1
23 18 11 16 16 2 3 4 3 11 13 12 14 19 16 16 14 14 9 15 14 9
0 2 4 4 6 5 9 6 9 7 6 8 12 11 15 14 12 14 11 8 11 0
-0 5 1 3 5 13 14 12 16 11 10 12 10 11 10 14 14 11 10 9 10 8
9 10 18 19 19 21 19 19 18 16 14 11 11 8 8 9 12 13 10 10 10 12
17 13 15 17 15 13 12 12 11 11 12 11 10 10 7 8 10 12 14 15 15 17
7 4 7 5 5 5 5 7 8 6 9 11 14 13 8 4 5 11 13 12 17 22
6 5 6 6 7 7 6 5 6 6 7 6 13 22 19 15 10 11 16 20 24 10
Height
3007 3003 3000 2998 2996 2995 2995 2996 2995 2994 2992 2991 2993 2992 2994 2996 3002 3004 3005 3003 3008 3013
2990 2988 2986 2984 2982 2982 2983 2984 2984 2984 2982 2983 2982 2984 2984 2985 2988 2989 2993 2994 3000 3006
2977 2974 2972 2972 2972 2972 2971 2973 2974 2975 2973 2973 2973 2975 2975 2975 2977 2979 2982 2984 2986 2991
2963 2961 2962 2963 2963 2963 2964 2963 2964 2965 2965 2966 2966 2965 2966 2965 2969 2969 2973 2975 2977 2979
2953 2953 2956 2957 2958 2958 2958 2957 2957 2957 2956 2958 2956 2957 2956 2958 2960 2963 2963 2965 2970 2973
2950 2950 2953 2955 2956 2956 2955 2954 2952 2951 2949 2949 2950 2950 2950 2952 2954 2958 2958 2962 2962 2963
2950 2950 2951 2952 2952 2952 2951 2949 2948 2946 2945 2943 2944 2943 2945 2946 2946 2947 2950 2949 2945 2947
2947 2949 2950 2951 2950 2950 2949 2947 2945 2944 2942 2939 2938 2937 2936 2936 2937 2938 2937 2940 2944 2944
2950 2950 2950 2949 2948 2946 2944 2942 2940 2938 2937 2935 2933 2931 2930 2930 2928 2931 2929 2932 2933 2939
2948 2948 2947 2945 2943 2940 2938 2936 2934 2932 2930 2928 2925 2924 2923 2922 2921 2920 2921 2924 2926 2928
2947 2945 2943 2940 2937 2935 2932 2929 2928 2926 2924 2923 2921 2918 2916 2913 2912 2911 2912 2913 2914 2915
2944 2941 2938 2936 2934 2931 2928 2925 2922 2919 2917 2915 2914 2911 2908 2905 2903 2901 2899 2898 2899 2901
2941 2938 2934 2933 2930 2927 2923 2921 2918 2915 2911 2907 2904 2902 2900 2897 2893 2891 2888 2886 2883 2883
2938 2935 2933 2929 2926 2922 2918 2914 2911 2908 2904 2900 2895 2890 2887 2884 2880 2876 2874 2871 2870 2870